Flag for Germany Weather past 2 weeks in Dillenburg, Hesse, Germany

Now
60 °F

Drizzle. Overcast.


Feels Like: 61 °F
Forecast: 51 / 59 °F
Wind: 3 mph from Northwest

Location: Giessen

Current Time: Aug 31, 2014 at 1:25:25 AM

Latest Report: Aug 31, 2014 at 1:00 AM


Visibility: 18 mi

Pressure: 30.01 "Hg

Humidity: 94%

Dew point: 58 °F

Location of DillenburgLocation

Historic Weather in Dillenburg — Graph

°F

Dillenburg temperature yesterday

Maximum temperature yesterday: 68 °F (at 4:00 PM)
Minimum temperature yesterday: 55 °F (at 6:00 AM)
Average temperature yesterday: 61 °F

Past Weeks' High & Low Weather Summary

 TemperatureHumidityPressure
High74 °F (Aug 29, 4:00 PM)99% (Aug 30, 5:00 AM)30.12 "Hg (Aug 30, 5:00 AM)
Low42 °F (Aug 25, 4:00 AM)40% (Aug 21, 4:00 PM)29.66 "Hg (Aug 26, 7:00 AM)
Average57 °F80%29.96 "Hg
* Reported Midnight between Aug 15 and Aug 16 — Midnight between Aug 30 and Aug 31, Dillenburg, Weather by CustomWeather, © 2014

Note: Actual official high and low records may vary slightly from our data, if they occured in-between our weather recording intervals... More about our weather records

Advertising

Dillenburg weather history for previous 24 hours

 ConditionsComfort  
Time TempWeatherWind HumidityBarometerVisibility
12:00 AM
Aug 31
60 °FOvercast.2 mph94%30.01 "Hg11 mi
11:00 PM
Aug 30
60 °FOvercast.2 mph94%30.02 "Hg11 mi
10:00 PM60 °FRain. Overcast.2 mph93%30.03 "Hg8 mi
9:00 PM61 °FLow clouds.2 mph94%30.03 "Hg13 mi
8:00 PM61 °FLight rain. Overcast.3 mph91%30.03 "Hg18 mi
7:00 PM62 °FOvercast.6 mph87%30.03 "Hg19 mi
6:00 PM66 °FDrizzle. Overcast.6 mph73%30.02 "Hg25 mi
5:00 PM68 °FOvercast.6 mph65%30.02 "Hg34 mi
4:00 PM68 °FOvercast.7 mph66%30.02 "Hg37 mi
3:00 PM66 °FOvercast.7 mph65%30.04 "Hg31 mi
2:00 PM67 °FOvercast.6 mph65%30.04 "Hg34 mi
1:00 PM66 °FOvercast.7 mph66%30.05 "Hg34 mi
12:00 PM67 °FOvercast.6 mph70%30.06 "Hg19 mi
11:00 AM64 °FPassing clouds.7 mph85%30.07 "Hg16 mi
10:00 AM58 °FOvercast.3 mph98%30.08 "Hg11 mi
9:00 AM56 °FLow clouds.2 mph99%30.08 "Hg3 mi
8:00 AM56 °FLow clouds.2 mph99%30.08 "Hg1 mi
7:00 AM55 °FLow clouds.1 mph99%30.07 "Hg1 mi
6:00 AM55 °FLow clouds.2 mph99%30.06 "Hg0 mi
5:00 AM56 °FPassing clouds.3 mph99%30.06 "Hg0 mi
4:00 AM56 °FPassing clouds.3 mph98%30.06 "Hg1 mi
3:00 AM55 °FOvercast.2 mph98%30.06 "Hg1 mi
2:00 AM56 °FOvercast.2 mph98%30.06 "Hg2 mi
1:00 AM56 °FOvercast.1 mph98%30.06 "Hg1 mi
Weather by CustomWeather, © 2014

See weather overviewHow to use our weather pages